View from above orbital plane
|
View from above satellite
|
Ground track
|
The orbit data is extracted from the following two-line orbital elements,
1 16111U 85090B 21104.50230959 .00013604 00000-0 10920-3 0 9992
2 16111 97.4809 302.9923 0008545 217.6701 142.3964 15.71086254962176
Epoch (UTC): | 14 April 2021 12:03:19 |
Eccentricity: | 0.0008545 |
inclination: | 97.4809° |
perigee height: | 350 km |
apogee height: | 361 km |
right ascension of ascending node: | 302.9923° |
argument of perigee: | 217.6701° |
revolutions per day: | 15.71086254 |
mean anomaly at epoch: | 142.3964° |
orbit number at epoch: | 96217 |
The dashed part of the orbit path shows where the satellite is in the earth's shadow,
|
|